[keps] orb12299.2l.amsat
Ray Hoad
ray.hoad at mypbmail.com
Thu Oct 25 18:03:21 PDT 2012
SB KEPS @ AMSAT $ORB12299.N
2Line Orbital Elements 12299.AMSAT
HR AMSAT ORBITAL ELEMENTS FOR AMATEUR SATELLITES IN NASA FORMAT
FROM WA5QGD FORT WORTH,TX October 25, 2012
BID: ORB12299.N
DECODE 2-LINE ELSETS WITH THE FOLLOWING KEY:
1 AAAAAU 00 0 0 BBBBB.BBBBBBBB .CCCCCCCC 00000-0 00000-0 0 DDDZ
2 AAAAA EEE.EEEE FFF.FFFF GGGGGGG HHH.HHHH III.IIII JJ.JJJJJJJJKKKKKZ
KEY: A-CATALOGNUM B-EPOCHTIME C-DECAY D-ELSETNUM E-INCLINATION F-RAAN
G-ECCENTRICITY H-ARGPERIGEE I-MNANOM J-MNMOTION K-ORBITNUM Z-CHECKSUM
TO ALL RADIO AMATEURS BT
AO-07
1 07530U 74089B 12299.54746736 -.00000027 00000-0 10000-3 0 5145
2 07530 101.4134 291.7714 0012079 027.7617 332.4093 12.53592218736380
FO-29
1 24278U 96046B 12298.81998031 .00000008 00000-0 42555-4 0 09789
2 24278 098.5865 022.5209 0351193 053.8328 309.4765 13.52990746799484
SO-33
1 25509U 98061B 12299.43561064 .00001137 00000-0 21127-3 0 3517
2 25509 031.4362 316.5578 0352411 263.1244 092.9201 14.28861893731290
RS-22
1 27939U 03042A 12299.59928421 .00001147 00000-0 22626-3 0 8445
2 27939 097.8015 133.6855 0012530 208.7698 151.2816 14.64189300484965
VO-52
1 28650U 05017B 12298.59139670 .00002347 00000-0 29132-3 0 02434
2 28650 097.5875 323.1677 0026061 338.7535 021.2591 14.83298924404156
HO-68
1 36122U 09072B 12299.72003090 -.00000044 00000-0 00000 0 0 9501
2 36122 100.3452 356.3392 0007567 167.6628 192.4671 13.16299290137567
UO-11
1 14781U 84021B 12299.76148935 .00000989 00000-0 13568-3 0 96
2 14781 097.9373 358.0358 0008059 336.6123 023.4722 14.80621333539243
AO-16
1 20439U 90005D 12298.90367285 .00000176 00000-0 81157-4 0 06081
2 20439 098.4407 238.7169 0012541 133.4336 226.7907 14.32099089188560
LO-19
1 20442U 90005G 12299.88510601 .00000323 00000-0 13506-3 0 5192
2 20442 098.4110 242.2351 0012495 120.6308 239.6106 14.32317127188899
AO-27
1 22825U 93061C 12299.78739740 .00000277 00000-0 12538-3 0 2278
2 22825 098.5873 240.6475 0007624 254.5995 105.4332 14.29501584995131
IO-26
1 22826U 93061D 12298.85338972 .00000279 00000-0 12578-3 0 09945
2 22826 098.5814 240.0636 0008023 253.1280 106.9021 14.29778251995134
GO-32
1 25397U 98043D 12298.46827903 .00000197 00000-0 10516-3 0 09073
2 25397 098.3801 270.9220 0000346 280.9703 079.1440 14.23301550742418
NO-44
1 26931U 01043C 12299.84675468 .00000290 00000-0 14477-3 0 1685
2 26931 067.0510 143.5776 0005624 248.9212 111.1265 14.29848602577921
SO-50
1 27607U 02058C 12298.89006748 .00001468 00000-0 24180-3 0 8975
2 27607 064.5581 260.2959 0074053 222.2476 137.2940 14.72596037529062
CO-55
1 27844U 03031E 12298.61644158 .00000369 00000-0 19019-3 0 4917
2 27844 098.7038 305.1253 0009116 205.9820 154.0902 14.21097344483274
CO-57
1 27848U 03031J 12299.55855925 .00000311 00000-0 16429-3 0 4415
2 27848 098.7130 305.4493 0009078 207.5437 152.5255 14.20840011483347
AO-51
1 28375U 04025K 12298.58173835 .00000296 00000-0 10113-3 0 3965
2 28375 098.1645 257.9575 0084485 009.6017 350.6768 14.41010063437405
CP3
1 31129U 07012N 12298.73850900 .00001353 00000-0 31455-3 0 02985
2 31129 097.8886 298.9250 0101911 080.3146 280.9520 14.53274004292799
CO-65
1 32785U 08021C 12298.77956295 .00001901 00000-0 23824-3 0 04525
2 32785 097.7829 356.6772 0014462 004.4936 355.6373 14.83309434242973
PRISM
1 33493U 09002B 12299.71272059 .00005636 00000-0 67151-3 0 1950
2 33493 098.1883 083.5903 0017808 232.3454 127.6148 14.84626146203114
SOHLA-1
1 33496U 09002E 12298.90828242 .00000871 00000-0 15316-3 0 8683
2 33496 098.1160 049.8750 0006751 358.5238 001.5946 14.70089467201305
SO-67
1 35870U 09049F 12299.74884382 .00007421 00000-0 30048-3 0 4517
2 35870 097.2206 330.8950 0003880 077.3323 014.3133 15.24953726172507
TISAT-1
1 36799U 10035E 12299.76982952 .00003468 00000-0 43836-3 0 4694
2 36799 098.0537 017.0248 0015932 107.4610 252.8341 14.82443120123830
STUDSAT
1 36801U 10035G 12298.85711081 .00009350 00000-0 10823-2 0 05258
2 36801 098.0599 017.4748 0013269 096.0815 264.1914 14.85669715123769
FO-69
1 37227U 0 12299.47103552 .00001135 00000-0 16759-3 0 03211
2 37227 071.9717 024.4362 0015204 076.9960 283.2898 14.77238056055334
FO-70
1 37380U 0 12299.36318212 .00001115 00000-0 16562-3 0 03210
2 37380 071.9740 025.3984 0015723 073.8645 286.4236 14.76985071055204
ALMASAT-1
1 38078U 12006B 12299.72991927 .00022506 00000-0 62334-3 0 6795
2 38078 069.4755 020.5788 0734754 084.6814 283.7609 14.14353527 35979
XATCOBEO
1 38082U 12006F 12299.65387383 .00056025 00000-0 13325-2 0 6447
2 38082 069.4819 014.2731 0682472 081.1908 286.5801 14.28494160 36136
NOAA-10
1 16969U 86073A 12298.96501302 .00000078 00000-0 49475-4 0 01128
2 16969 098.5715 325.6455 0011641 211.5689 148.4797 14.27587426358386
NOAA-11
1 19531U 88089A 12298.83076553 .00000033 00000-0 39229-4 0 01044
2 19531 098.7270 021.2264 0010489 211.3138 148.7406 14.14987124242843
NOAA-12
1 21263U 91032A 12298.96890928 .00000047 00000-0 38754-4 0 05912
2 21263 098.7217 319.9796 0013696 180.4048 179.7126 14.25525220115046
MET-3/5
1 21655U 91056A 12298.82618126 .00000325 00000-0 81316-3 0 00012
2 21655 082.5577 060.5905 0013027 003.2768 356.8437 13.17038863018712
MET-2/21
1 22782U 93055A 12298.59368179 .00000018 00000-0 26696-5 0 5622
2 22782 082.5457 289.8344 0023347 146.4347 213.8293 13.83690022967060
OKEAN-4
1 23317U 94066A 12299.91578919 .00002370 00000-0 28089-3 0 367
2 23317 082.5370 268.9600 0019396 282.8876 077.0173 14.84048648974195
NOAA-14
1 23455U 94089A 12298.90415422 .00000142 00000-0 98043-4 0 00804
2 23455 098.8221 020.7303 0008943 311.8548 048.1856 14.13877992919125
NOAA-15
1 25338U 98030A 12298.94502967 .00000208 00000-0 10748-3 0 04533
2 25338 098.7034 284.7197 0011606 090.9741 269.2792 14.25135684751331
RESURS
1 25394U 98043A 12298.94338910 .00000095 00000-0 58790-4 0 02312
2 25394 098.3333 280.4378 0000786 177.9611 182.1572 14.24303681742875
FENGYUN1
1 25730U 99025A 12298.88793232 .00001031 00000-0 61007-3 0 7244
2 25730 098.8541 255.6923 0021233 352.7010 007.3848 14.09797677692885
OKEAN-0
1 25860U 99039A 12298.96202779 .00001078 00000-0 17012-3 0 07870
2 25860 097.9534 259.0832 0001069 101.5581 258.5746 14.74357730713690
NOAA-16
1 26536U 00055A 12298.71246249 -.00000092 00000-0 -25054-4 0 09431
2 26536 099.0794 342.7408 0011400 079.5961 280.6492 14.12795042623325
NOAA-17
1 27453U 02032A 12298.75892681 .00000106 00000-0 63421-4 0 08857
2 27453 098.3285 319.1976 0012408 133.0520 227.1692 14.24497968537203
NOAA-18
1 28654U 05018A 12298.76944302 -.00000004 00000-0 22822-4 0 03669
2 28654 099.0641 258.0463 0014603 147.4430 212.7628 14.11718315382846
NOAA-19
1 33591U 09005A 12298.73559026 .00000512 00000-0 30687-3 0 05546
2 33591 098.8758 236.9831 0014456 018.3875 341.7805 14.11407639191287
HUBBLE
1 20580U 90037B 12299.23142079 .00003436 00000-0 23728-3 0 953
2 20580 028.4704 012.2754 0003274 010.9575 349.1256 15.02951230 34304
ISS
1 25544U 98067A 12299.90998762 .00023832 00000-0 40637-3 0 5271
2 25544 051.6474 192.0129 0016608 208.9043 237.0261 15.51079814798321
CO-58
1 28895U 05043F 12299.64510482 .00001240 00000-0 26232-3 0 3110
2 28895 097.8934 160.0577 0018830 099.3717 260.9631 14.60810595372701
FALCON
1 30776U 07006E 12298.95388384 .00007912 00000-0 49736-3 0 04688
2 30776 035.4315 203.6666 0002388 039.8042 320.2875 15.08617340309859
MAST
1 31126U 07012K 12299.88519657 .00001123 00000-0 25924-3 0 5904
2 31126 097.8750 303.3570 0094648 063.5365 297.5505 14.54306444293261
CAPE1
1 31130U 07012P 12298.72049767 .00001289 00000-0 30085-3 0 6000
2 31130 097.8875 298.5885 0102531 080.9751 280.3028 14.53127363292585
COMPASS
1 32787U 08021E 12298.77716772 .00003235 00000-0 38909-3 0 04488
2 32787 097.7861 357.1777 0015169 001.4841 358.6401 14.84534236243033
AAUSAT2
1 32788U 08021F 12299.86255009 .00004226 00000-0 50187-3 0 4372
2 32788 097.7863 358.6962 0013895 000.4477 359.6723 14.84914262243226
DO-64
1 32789U 08021G 12298.82219675 .00007073 00000-0 79838-3 0 04565
2 32789 097.7997 000.2325 0014181 356.7258 003.3853 14.86776910243136
CO-66
1 32791U 08021J 12299.76546197 .00002732 00000-0 33495-3 0 4357
2 32791 097.7850 357.7707 0015120 359.3202 000.7943 14.83861170243101
RS-30
1 32953U 08025A 12299.76097043 .00000010 00000-0 00000 0 0 2641
2 32953 082.5045 213.9362 0020040 025.7032 334.5047 12.43028919200781
PHARMSAT
1 35002U 09028B 12226.86484473 .07728342 73476-5 57159-3 0 789
2 35002 040.4341 050.6671 0012079 300.9773 059.0492 16.39309245183554
METEOR-M
1 35865U 09049A 12299.75559991 .00000012 00000-0 25041-4 0 9025
2 35865 098.6383 351.5241 0003298 043.5461 316.5975 14.21872540161156
RS-38
1 35869U 09049E 12299.75697313 .00000079 00000-0 55348-4 0 8856
2 35869 098.6337 351.4982 0005421 041.5648 318.5938 14.22094669161177
JUGNU
1 37839U 11058B 12298.34604136 .00000620 00000-0 19019-3 0 02550
2 37839 019.9590 295.7508 0018994 204.5637 155.3863 14.12094638053523
SRMSAT
1 37841U 11058D 12298.36427003 .00000264 00000-0 00000-0 0 02574
2 37841 019.9686 303.0543 0012252 170.0246 190.0410 14.10172603053451
RAX-2
1 37853U 11061D 12298.94046824 .00005135 00000-0 40510-3 0 03344
2 37853 101.7039 038.2514 0243173 340.6149 018.5900 14.81163021053603
AUBIESAT
1 37854U 11061E 12299.87073008 .00006031 00000-0 46733-3 0 3228
2 37854 101.7062 040.0413 0242994 337.1178 021.9323 14.81661249 53738
HRBE
1 37855U 11061F 12299.89941486 .00005642 00000-0 43829-3 0 3180
2 37855 101.7075 039.9889 0244223 337.2152 021.8353 14.81454858 53735
RS-39
1 38051U 11062C 12299.88598756 .00020398 00000-0 77232-3 0 8283
2 38051 051.6370 256.0270 0013756 140.3683 263.1372 15.26810022 41927
E-STAR
1 38079U 12006C 12299.62917361 .00043967 00000-0 10653-2 0 5963
2 38079 069.4828 015.6097 0697809 082.0239 285.9446 14.24884213 36090
GOLIAT
1 38085U 12006J 12299.64953393 .00043361 00000-0 10432-2 0 5623
2 38085 069.4832 016.3335 0704347 082.4519 285.5947 14.23644034 36070
HORYU-2
1 38340U 12025D 12299.77878823 .00002623 00000-0 44213-3 0 2084
2 38340 098.1866 239.8910 0011802 279.2484 080.7387 14.70321274 23669
RS-40
1 38736U 12041D 12299.57642088 .00000010 00000-0 00000 0 0 898
2 38736 082.4755 301.4110 0019881 117.5622 242.7483 12.42647005 11105
PROITERES
1 38756U 12047B 12299.72731812 .00001064 00000-0 17002-3 0 1678
2 38756 098.2804 006.1931 0013542 129.1357 231.1052 14.73937216 6851
AENEAS
1 38760U 0 12298.31629831 .00010038 00000-0 90952-3 0 00473
2 38760 064.6718 276.8338 0218398 278.1463 079.4936 14.79328824005963
CSSWE-D
1 38761U 0 12298.31357253 .00006476 00000-0 59084-3 0 00427
2 38761 064.6726 276.8243 0219448 278.1604 079.4686 14.79327712005969
CXBN-E
1 38762U 0 12298.44743389 .00007454 00000-0 67625-3 0 00428
2 38762 064.6738 276.4052 0219308 277.9029 079.7277 14.79404992005987
OBJECT F
1 38763U 0 12298.44715918 .00006264 00000-0 57074-3 0 00409
2 38763 064.6724 276.4017 0219671 278.1644 079.4619 14.79379828005822
CINEMA-G
1 38764U 0 12298.44683446 .00006525 00000-0 59401-3 0 00406
2 38764 064.6723 276.3967 0219406 278.2084 079.4214 14.79401011005988
CP5
1 38765U 0 12298.47334000 .00008350 00000-0 75521-3 0 00419
2 38765 064.6726 276.3011 0218766 277.9598 226.6709 14.79487188005980
RAIKO
1 38852U 98067CN 12299.87907583 .00047878 00000-0 75680-3 0 192
2 38852 051.6464 191.9836 0018826 198.0064 162.0258 15.52789701 3231
FITSAT 1
1 38853U 98067CP 12299.87727956 .00057221 00000-0 89490-3 0 217
2 38853 051.6485 191.9704 0014645 207.0984 152.9262 15.53088154 3289
TechEdSat
1 38854U 98067CQ 12298.90849351 .00075543 00000-0 11567-2 0 00299
2 38854 051.6464 196.7461 0014672 204.5586 155.4735 15.53553041003140
F 1
1 38855U 98067CR 12298.97345513 .00073109 00000-0 11236-2 0 00286
2 38855 051.6468 196.4289 0013882 205.1695 154.8620 15.53477922003048
WeWish
1 38856U 98067CS 12298.96806591 .00105875 00000-0 15562-2 0 00309
2 38856 051.6491 196.3990 0019441 195.0921 164.9494 15.54427406003043
/EX
More information about the Keps
mailing list